Stations météo

réclame
Mon MeteoGroup
Aboyne, Grande-Bretagne (3080): Température de l'air & dewpoint: 11.12.2018 19:00:00 - 17.12.2018 19:00:00 (GMT)Aboyne, Grande-Bretagne (3080): Température de l'air -20cm & Température de l'air -100cm: 11.12.2018 19:00:00 - 17.12.2018 19:00:00 (GMT)Aboyne, Grande-Bretagne (3080): Vitesse du vent & gusts: 11.12.2018 19:00:00 - 17.12.2018 19:00:00 (GMT)Aboyne, Grande-Bretagne (3080): Direction du vent: 11.12.2018 19:00:00 - 17.12.2018 19:00:00 (GMT)Aboyne, Grande-Bretagne (3080): reduced air pressure: 11.12.2018 19:00:00 - 17.12.2018 19:00:00 (GMT)Aboyne, Grande-Bretagne (3080): visibility: 11.12.2018 19:00:00 - 17.12.2018 19:00:00 (GMT)Aboyne, Grande-Bretagne (3080): Quantités de précipitations: 11.12.2018 19:00:00 - 17.12.2018 19:00:00 (GMT)
Date & Time tt [°C] td [°C] tt -20cm [°C] tt -100cm [°C] ff [km/h] ff [knt] fx [km/h] fx [knt] dd ppp [hPa] vv [km] rr [mm]
17.12.2018 19:00:00 5,3 4,1 - - 18 10 - - ESE 1008,7 5 0,0
17.12.2018 18:00:00 5,0 3,0 - - 16 9 - - SSE 1009,0 30 0,0
17.12.2018 17:00:00 4,1 2,5 - - 13 7 - - ESE 1009,4 26 0,0
17.12.2018 16:00:00 4,0 2,1 - - 18 10 - - SE 1009,5 35 0,0
17.12.2018 15:00:00 2,8 1,3 - - 5 3 - - NE 1009,4 30 0,0
17.12.2018 14:00:00 3,1 2,1 - - 9 5 - - E 1009,6 45 0,2
17.12.2018 13:00:00 0,9 0,1 - - 9 5 - - E 1010,0 30 0,0
17.12.2018 12:00:00 0,0 -0,6 - - 8 4 - - ESE 1009,8 23 0,0
17.12.2018 11:00:00 -0,8 -1,1 - - 2 1 - - ENE 1010,2 35 0,0
17.12.2018 10:00:00 -2,3 -2,5 - - 2 1 - - NW 1010,1 27 0,0
17.12.2018 09:00:00 -2,9 -3,0 4,0 5,7 4 2 - - NW 1009,5 2,4 0,0
17.12.2018 08:00:00 -2,9 -3,3 - - 2 1 - - W 1009,0 30 0,0
17.12.2018 07:00:00 -2,2 -2,8 - - 4 2 - - ENE 1008,3 40 0,0
17.12.2018 06:00:00 -0,8 -1,2 - - 4 2 - - ENE 1007,4 50 0,0
17.12.2018 05:00:00 -0,3 -1,7 - - 2 1 - - N 1006,9 50 0,0
17.12.2018 04:00:00 3,3 1,9 - - 5 3 - - NNE 1006,3 50 0,0
17.12.2018 03:00:00 4,4 2,1 - - 4 2 - - SSE 1006,1 50 0,0
17.12.2018 02:00:00 4,0 2,3 - - 8 4 - - E 1005,4 50 0,0
17.12.2018 01:00:00 3,8 2,1 - - 2 1 - - WSW 1005,0 50 0,0
17.12.2018 00:00:00 4,1 2,9 - - 2 1 - - N 1004,5 40 0,0
16.12.2018 23:00:00 3,4 2,2 - - 8 4 - - SSE 1004,4 26 0,0
16.12.2018 22:00:00 3,3 2,4 - - 8 4 - - SE 1004,1 25 0,0
16.12.2018 21:00:00 4,2 2,6 - - 5 3 - - S 1003,6 25 0,0
16.12.2018 20:00:00 3,0 1,7 - - 4 2 - - ENE 1003,3 23 0,0
16.12.2018 19:00:00 3,8 2,0 - - 5 3 - - NNW 1002,8 40 0,0
16.12.2018 18:00:00 4,3 2,0 - - 9 5 - - ENE 1002,1 30 0,0
16.12.2018 17:00:00 5,1 1,1 - - 13 7 - - SW 1001,4 50 0,0
16.12.2018 16:00:00 4,4 0,4 - - 13 7 - - SSW 1000,7 45 0,0
16.12.2018 15:00:00 5,0 0,7 - - 16 9 - - SW 999,5 50 0,0
16.12.2018 14:00:00 6,5 1,4 - - 15 8 - - WSW 999,1 50 0,0
16.12.2018 13:00:00 6,0 1,4 - - 24 13 - - SW 998,3 40 0,0
16.12.2018 12:00:00 5,7 1,4 - - 26 14 - - SSW 997,3 45 0,0
16.12.2018 11:00:00 6,1 1,2 - - 9 5 - - SSW 996,0 45 0,0
16.12.2018 10:00:00 4,9 1,0 - - 13 7 - - W 994,8 35 0,0
16.12.2018 09:00:00 4,9 0,7 3,9 5,7 22 12 57 31 W 993,1 50 0,0
16.12.2018 08:00:00 4,9 0,5 - - 29 16 54 29 W 990,7 50 0,0
16.12.2018 07:00:00 3,8 1,0 - - 13 7 - - SSW 989,4 50 0,0
16.12.2018 06:00:00 1,2 0,8 - - 9 5 - - E 988,9 50 0,0
16.12.2018 05:00:00 2,0 1,1 - - 2 1 - - W 988,3 50 0,0
16.12.2018 04:00:00 2,9 1,6 - - 8 4 - - W 988,2 40 0,2
16.12.2018 03:00:00 3,7 2,4 - - 4 2 - - N 987,7 35 0,8
16.12.2018 02:00:00 4,6 2,9 - - 24 13 54 29 SE 988,2 9 2,0
16.12.2018 01:00:00 4,0 3,1 - - 28 15 57 31 ESE 988,8 5 2,0
16.12.2018 00:00:00 3,5 2,5 - - 34 18 55 30 ESE 989,7 10 2,0
15.12.2018 23:00:00 2,6 1,5 - - 28 15 - - ESE 991,5 7 3,2
15.12.2018 22:00:00 1,9 1,0 - - 28 15 59 32 ESE 993,3 4,6 4,2
15.12.2018 21:00:00 1,9 1,0 - - 35 19 57 31 ESE 994,2 4,0 4,2
15.12.2018 20:00:00 2,1 1,1 - - 35 19 63 34 ESE 995,0 2,9 3,4
15.12.2018 19:00:00 1,9 1,0 - - 35 19 54 29 ESE 996,3 3,5 4,8
15.12.2018 18:00:00 2,2 1,0 - - 34 18 55 30 ESE 997,5 4,1 2,6
15.12.2018 17:00:00 2,8 1,3 - - 34 18 61 33 ESE 999,0 3,7 2,0
15.12.2018 16:00:00 2,7 1,3 - - 34 18 57 31 ESE 1001,1 2,6 1,0
15.12.2018 15:00:00 2,5 0,1 - - 39 21 72 39 SE 1002,3 3,6 0,0
15.12.2018 14:00:00 3,3 -0,6 - - 37 20 70 38 SE 1004,2 12 0,0
15.12.2018 13:00:00 3,1 -1,5 - - 37 20 68 37 SE 1006,3 15 0,0
15.12.2018 12:00:00 3,1 -1,9 - - 18 10 55 30 SE 1008,3 19 0,0
15.12.2018 11:00:00 2,8 -2,2 - - 18 10 - - SE 1010,3 19 0,0
15.12.2018 10:00:00 2,6 -3,2 - - 18 10 - - SE 1011,9 24 0,0
15.12.2018 09:00:00 2,8 -3,1 4,4 5,9 15 8 48 26 SSE 1013,0 30 0,0
15.12.2018 08:00:00 2,5 -3,5 - - 18 10 50 27 ESE 1012,3 35 0,0
15.12.2018 07:00:00 2,4 -3,8 - - 16 9 - - ESE 1013,1 35 0,0
15.12.2018 06:00:00 2,4 -2,9 - - 15 8 48 26 SE 1014,3 30 0,0
15.12.2018 05:00:00 2,5 -4,0 - - 26 14 52 28 SE 1014,5 45 0,0
15.12.2018 04:00:00 2,4 -3,9 - - 16 9 54 29 SSE 1015,5 45 0,0
15.12.2018 03:00:00 2,5 -4,2 - - 16 9 65 35 ESE 1016,1 40 0,0
15.12.2018 02:00:00 2,3 -4,3 - - 22 12 46 25 SE 1016,4 45 0,0
15.12.2018 01:00:00 2,4 -3,8 - - 18 10 55 30 SE 1017,2 40 0,0
15.12.2018 00:00:00 2,3 -3,3 - - 24 13 46 25 SE 1017,6 35 0,0
14.12.2018 23:00:00 2,0 -4,1 - - 21 11 - - SE 1018,3 50 0,0
14.12.2018 22:00:00 2,2 -3,9 - - 18 10 - - SSE 1018,9 50 0,0
14.12.2018 21:00:00 2,3 -3,6 - - 13 7 - - SSE 1019,4 50 0,0
14.12.2018 20:00:00 2,1 -3,6 - - 9 5 - - SSE 1019,5 45 0,0
14.12.2018 19:00:00 2,2 -3,5 - - 11 6 46 25 ESE 1019,4 45 0,0
14.12.2018 18:00:00 2,2 -4,2 - - 15 8 - - SE 1019,6 50 0,0
14.12.2018 17:00:00 1,9 -3,2 - - 11 6 - - SSE 1020,6 40 0,0
14.12.2018 16:00:00 2,3 -3,1 - - 11 6 - - SE 1020,9 45 0,0
14.12.2018 15:00:00 2,5 -2,5 - - 13 7 - - SSE 1020,7 40 0,0
14.12.2018 14:00:00 3,4 -2,7 - - 13 7 - - SSE 1021,0 50 0,0
14.12.2018 13:00:00 4,7 -2,7 - - 15 8 - - S 1021,3 40 0,0
14.12.2018 12:00:00 3,8 -2,4 - - 11 6 - - SSE 1021,5 45 0,0
14.12.2018 11:00:00 3,9 -2,3 - - 9 5 - - SSE 1021,8 45 0,0
14.12.2018 10:00:00 2,8 -1,9 - - 5 3 - - SE 1021,8 45 0,0
14.12.2018 09:00:00 -0,6 -3,5 4,7 6,0 2 1 - - ESE 1022,0 50 0,0
14.12.2018 08:00:00 0,4 -3,2 - - 4 2 - - SSE 1021,9 40 0,0
14.12.2018 07:00:00 1,2 -3,0 - - 8 4 - - ESE 1022,1 45 0,0
14.12.2018 06:00:00 2,5 -2,4 - - 9 5 - - SSE 1022,3 50 0,0
14.12.2018 05:00:00 2,9 -1,9 - - 9 5 - - S 1022,3 50 0,0
14.12.2018 04:00:00 3,3 -1,7 - - 8 4 - - SSE 1022,5 40 0,0
14.12.2018 03:00:00 2,7 -2,0 - - 5 3 - - SSE 1022,7 50 0,0
14.12.2018 02:00:00 3,8 -1,6 - - 9 5 - - SSE 1022,5 45 0,0
14.12.2018 01:00:00 3,7 -1,6 - - 8 4 - - SSE 1022,4 50 0,0
14.12.2018 00:00:00 3,4 -1,5 - - 9 5 - - S 1022,5 40 0,0
13.12.2018 23:00:00 4,2 -0,3 - - 18 10 - - SSE 1021,8 40 0,0
13.12.2018 22:00:00 3,9 0,0 - - 21 11 - - SE 1021,9 35 0,0
13.12.2018 21:00:00 3,5 0,1 - - 5 3 - - E 1022,3 35 0,0
13.12.2018 20:00:00 4,3 0,0 - - 21 11 - - SE 1021,3 40 0,0
13.12.2018 19:00:00 4,3 0,1 - - 21 11 - - SE 1021,1 35 0,0
13.12.2018 18:00:00 4,5 0,5 - - 21 11 - - SSE 1020,9 29 0,0
13.12.2018 17:00:00 4,5 0,7 - - 18 10 - - SE 1020,6 27 0,0
13.12.2018 16:00:00 4,6 0,4 - - 16 9 - - SSE 1020,2 30 0,0
13.12.2018 15:00:00 4,1 0,3 - - 15 8 - - SE 1019,2 30 0,0
13.12.2018 14:00:00 4,3 -0,3 - - 13 7 - - SE 1018,9 40 0,0
13.12.2018 13:00:00 4,2 -0,1 - - 13 7 - - SSE 1018,9 30 0,0
13.12.2018 12:00:00 4,5 0,9 - - 13 7 - - S 1019,1 29 0,0
13.12.2018 11:00:00 3,7 1,8 - - 16 9 - - SE 1019,2 9 0,6
13.12.2018 10:00:00 4,0 1,9 - - 16 9 - - SSE 1019,2 10 0,2
13.12.2018 09:00:00 3,8 2,1 4,9 6,0 21 11 - - SSE 1019,0 5 0,4
13.12.2018 08:00:00 3,9 1,9 - - 16 9 - - SSE 1018,4 23 0,4
13.12.2018 07:00:00 4,2 1,9 - - 15 8 - - SSE 1017,9 28 0,2
13.12.2018 06:00:00 3,4 1,6 - - 15 8 - - SSE 1018,1 35 0,6
13.12.2018 05:00:00 3,2 1,6 - - 15 8 - - SE 1018,0 11 0,2
13.12.2018 04:00:00 3,5 0,6 - - 18 10 - - SSE 1018,5 14 0,0
13.12.2018 03:00:00 4,1 -1,0 - - 21 11 - - S 1018,5 30 0,0
13.12.2018 02:00:00 4,5 -1,1 - - 24 13 - - SSE 1019,0 50 0,0
13.12.2018 01:00:00 4,8 -1,0 - - 21 11 50 27 SSE 1018,9 40 0,0
13.12.2018 00:00:00 4,9 -0,2 - - 16 9 - - SSE 1018,8 40 0,0
12.12.2018 23:00:00 5,0 0,4 - - 9 5 - - E 1018,5 30 0,0
12.12.2018 22:00:00 5,1 0,4 - - 11 6 - - ENE 1018,8 30 0,0
12.12.2018 21:00:00 5,2 0,4 - - 9 5 - - SW 1019,2 35 0,0
12.12.2018 20:00:00 5,4 0,8 - - 9 5 - - E 1019,2 30 0,0
12.12.2018 19:00:00 6,0 1,7 - - 18 10 - - ESE 1018,8 26 0,0
12.12.2018 18:00:00 6,1 2,2 - - 15 8 48 26 SE 1019,2 30 0,0
12.12.2018 17:00:00 6,1 2,9 - - 21 11 - - SE 1019,2 27 0,0
12.12.2018 16:00:00 6,1 3,2 - - 21 11 - - SE 1019,1 21 0,0
12.12.2018 15:00:00 6,3 3,5 - - 22 12 - - SE 1019,0 20 0,0
12.12.2018 14:00:00 6,5 3,5 - - 21 11 - - ESE 1019,7 23 0,0
12.12.2018 13:00:00 6,7 3,8 - - 22 12 - - SE 1019,9 28 0,0
12.12.2018 12:00:00 6,7 4,1 - - 18 10 - - SE 1020,0 21 0,0
12.12.2018 11:00:00 6,3 4,1 - - 16 9 - - SE 1020,8 15 0,0
12.12.2018 10:00:00 6,3 4,4 - - 16 9 - - SSE 1020,5 15 0,0
12.12.2018 09:00:00 6,1 4,6 4,7 6,0 16 9 - - SE 1020,1 13 0,0
12.12.2018 08:00:00 5,9 4,5 - - 16 9 - - SE 1020,2 11 0,0
12.12.2018 07:00:00 5,9 4,4 - - 15 8 - - SE 1019,9 10 0,0
12.12.2018 06:00:00 5,9 4,5 - - 16 9 - - SE 1019,5 11 0,0
12.12.2018 05:00:00 5,8 4,5 - - 13 7 - - E 1018,9 10 0,0
12.12.2018 04:00:00 6,0 4,5 - - 15 8 - - E 1019,2 12 0,0
12.12.2018 03:00:00 6,0 4,5 - - 16 9 - - ESE 1019,6 13 0,0
12.12.2018 02:00:00 6,2 4,9 - - 13 7 - - ESE 1019,5 9 0,0
12.12.2018 01:00:00 6,8 4,6 - - 16 9 - - ESE 1019,4 21 0,0
12.12.2018 00:00:00 7,6 4,4 - - 16 9 - - ESE 1019,3 35 0,0
11.12.2018 23:00:00 8,0 5,0 - - 16 9 - - SE 1019,3 45 0,0
11.12.2018 22:00:00 6,9 6,0 - - 13 7 - - E 1019,3 11 0,0
11.12.2018 21:00:00 6,6 5,8 - - 21 11 - - SE 1019,5 13 0,0
11.12.2018 20:00:00 6,5 5,0 - - 9 5 - - E 1019,1 50 0,0
11.12.2018 19:00:00 6,3 4,4 - - 8 4 - - ESE 1019,6 50 0,0

tt = Température de l'air
td = dewpoint
tt -20cm = Température de l'air -20cm
tt -100cm = Température de l'air -100cm
ff = Vitesse du vent
fx = gusts
dd = Direction du vent
ppp = reduced air pressure
vv = visibility
rr = Quantités de précipitations

stations d'obs. à proximité